Location: Earls Croome
(52.0667°N, 2.2000°W)
Time: 12:55:53
(UTC+00:00)

IDEFIX/ARIANE 42P - Pass Details

Date: 17 November 2019
Orbit: 784 x 804 km, 98.3° (Epoch: 12 December)

Event Time Altitude Azimuth Distance (km) Brightness Sun altitude
Rises 04:02:58 0° 15° (NNE) 3,295 6.1 -31.7°
Reaches altitude 10° 04:05:18 10° 16° (NNE) 2,360 5.3 -31.4°
Enters shadow 04:08:18 36° 18° (NNE) 1,240 3.7 -30.9°
